This is the latest recevied weather packets stored in our database for station/object WS2Z. If no packets are shown the sender has not sent any weather packets the latest 10 day(s).
| Time | Temp. | Humidity | Pressure | Rain* | Wind** | Luminosity | Snow |
|---|---|---|---|---|---|---|---|
| 1777780816 | 22.78° C | 95% | 1014.5 hPa | 3.05 mm | - | 0 W/m² | - |
| 1777780513 | 22.78° C | 95% | 1014.8 hPa | 1.78 mm | - | 0 W/m² | - |
| 1777780211 | 22.78° C | 95% | 1014.9 hPa | 0 mm | - | 0 W/m² | - |
| 1777779908 | 22.78° C | 95% | 1015 hPa | 1.78 mm | - | 0 W/m² | - |
| 1777779604 | 22.78° C | 94% | 1014.6 hPa | 1.78 mm | - | 0 W/m² | - |
| 1777779302 | 22.78° C | 94% | 1014.7 hPa | 1.27 mm | - | 0 W/m² | - |
| 1777779000 | 22.78° C | 94% | 1014.8 hPa | 1.78 mm | - | 0 W/m² | - |
| 1777778698 | 22.78° C | 94% | 1014.5 hPa | 3.05 mm | - | 0 W/m² | - |
| 1777778396 | 22.78° C | 94% | 1014.6 hPa | 1.27 mm | - | 0 W/m² | - |
| 1777778093 | 23.33° C | 94% | 1014.6 hPa | 1.78 mm | - | 0 W/m² | - |
| 1777777789 | 22.78° C | 94% | 1014.1 hPa | 1.78 mm | - | 0 W/m² | - |
| 1777777486 | 22.78° C | 94% | 1013.8 hPa | 0 mm | - | 0 W/m² | - |
| 1777777183 | 22.78° C | 94% | 1014.1 hPa | 0 mm | - | 0 W/m² | - |
| 1777776880 | 22.78° C | 93% | 1014.2 hPa | 0 mm | - | 0 W/m² | - |
| 1777776578 | 22.78° C | 94% | 1014.2 hPa | 0 mm | - | 0 W/m² | - |
| 1777776274 | 22.78° C | 93% | 1014.3 hPa | 0 mm | - | 0 W/m² | - |
| 1777775971 | 22.78° C | 94% | 1014.3 hPa | 0 mm | - | 0 W/m² | - |
| 1777775668 | 22.78° C | 94% | 1014.6 hPa | 0 mm | - | 0 W/m² | - |
| 1777775365 | 22.78° C | 93% | 1014.5 hPa | 0 mm | - | 0 W/m² | - |
| 1777775060 | 22.78° C | 93% | 1014.1 hPa | 0 mm | - | 0 W/m² | - |
| 1777774452 | 22.78° C | 93% | 1014.1 hPa | 0 mm | - | 0 W/m² | - |
| 1777774150 | 22.78° C | 93% | 1014 hPa | 0 mm | - | 0 W/m² | - |
| 1777769907 | 22.78° C | 92% | 1013.9 hPa | 0 mm | - | 0 W/m² | - |
| 1777769605 | 22.78° C | 93% | 1013.9 hPa | 0 mm | - | 0 W/m² | - |
| 1777769301 | 22.78° C | 92% | 1013.9 hPa | 0 mm | - | 0 W/m² | - |
* Rain latest hour (hover to see other rain measurements)
** Current wind speed in m/s (hover to see current wind gust speed)